Overview Statistics Trail Chart Weather Telemetry Raw packets
 

This is the latest recevied weather packets stored in our database for station/object OE5MMP-13. If no packets are shown the sender has not sent any weather packets the latest 10 day(s).

<< 47 48 49 50 51 52 53 >>
Time Temp. Humidity Pressure Rain* Wind** Luminosity Snow
1787960001 15° C 86% 1020.2 hPa 0.25 mm - 0 W/m² -
1787959401 15.56° C 86% 1020 hPa 0.25 mm - 0 W/m² -
1787958802 15.56° C 85% 1020.1 hPa 0.25 mm - 0 W/m² -
1787958201 15.56° C 84% 1019.7 hPa 1.78 mm - 0 W/m² -
1787957607 15.56° C 84% 1019.9 hPa 2.54 mm - 0 W/m² -
1787957007 16.11° C 84% 1020 hPa 2.29 mm - 0 W/m² -
1787956406 15.56° C 86% 1019.8 hPa 2.29 mm - 0 W/m² -
1787955806 15.56° C 86% 1019.4 hPa 2.29 mm - 0 W/m² -
1787955206 15.56° C 85% 1019.3 hPa 2.29 mm - 0 W/m² -
1787954606 16.11° C 82% 1019.7 hPa 0.76 mm - 0 W/m² -
1787954006 17.22° C 84% 1019.4 hPa 0 mm - 0 W/m² -
1787953406 17.78° C 87% 1018.8 hPa 0 mm - 0 W/m² -
1787952807 17.78° C 88% 1018.3 hPa 0 mm - 0 W/m² -
1787952206 18.33° C 88% 1018 hPa 0 mm - 0 W/m² -
1787951608 18.33° C 88% 1017.7 hPa 0 mm - 0 W/m² -
1787951006 18.33° C 89% 1017.6 hPa 0 mm - 0 W/m² -
1787950405 18.33° C 89% 1017.2 hPa 0 mm - 0 W/m² -
1787949805 18.33° C 88% 1016.8 hPa 0 mm - 0 W/m² -
1787949206 18.33° C 88% 1016.7 hPa 0 mm - 0 W/m² -
1787948605 18.33° C 89% 1016.6 hPa 0 mm - 0 W/m² -
1787948006 18.33° C 88% 1016.2 hPa 0.25 mm - 0 W/m² -
1787947405 17.78° C 88% 1015.8 hPa 0.25 mm - 0 W/m² -
1787946805 18.33° C 87% 1015.6 hPa 0.25 mm - 0 W/m² -
1787946205 18.33° C 87% 1015.1 hPa 0.25 mm - 0 W/m² -
1787945606 17.78° C 88% 1015 hPa 0.25 mm - 0 W/m² -

* Rain latest hour (hover to see other rain measurements)
** Current wind speed in m/s (hover to see current wind gust speed)